Temperature
8 8 7 7 7 6 6 5 5 5 5 5 5 5 4 4 4 3 3 2 1 0 -1 -1 -1 -1 -1 -1 -1 -1 -1 -1 -1 -0 0 1 1 2 2 3 3 4 5
7 7 7 6 6 5 5 5 4 4 4 4 4 4 4 3 3 2 1 1 -0 -2 -2 -3 -3 -3 -2 -2 -2 -2 -2 -2 -2 -2 -2 -1 -0 0 1 1 2 2 3
6 6 6 5 5 4 4 4 4 4 4 4 3 3 3 2 2 1 0 -0 -1 -3 -3 -4 -4 -4 -3 -3 -4 -4 -3 -3 -3 -4 -3 -3 -2 -2 -1 -0 1 1 2
6 5 4 4 4 3 3 3 3 3 3 3 2 2 2 1 1 0 -1 -1 -2 -3 -4 -4 -4 -4 -5 -5 -5 -4 -5 -5 -5 -5 -4 -4 -3 -3 -3 -2 -1 -0 1
4 4 3 3 3 3 3 3 3 2 2 2 1 1 1 0 -1 -2 -3 -3 -4 -4 -4 -4 -4 -5 -5 -5 -5 -5 -5 -5 -5 -5 -5 -5 -4 -4 -3 -3 -2 -2 -1
3 3 2 2 2 2 2 2 2 2 1 1 0 -0 -1 -1 -2 -3 -4 -5 -5 -5 -5 -5 -5 -6 -6 -6 -6 -6 -6 -6 -6 -6 -5 -5 -5 -5 -4 -3 -3 -2 -1
2 2 2 2 2 1 1 1 1 1 0 -0 -1 -2 -2 -3 -3 -4 -5 -6 -6 -6 -6 -6 -7 -7 -7 -7 -7 -6 -6 -6 -6 -6 -6 -5 -5 -4 -4 -3 -3 -2 -1
2 2 1 1 1 1 0 0 -0 -1 -1 -2 -2 -3 -3 -4 -4 -6 -7 -7 -7 -7 -7 -7 -7 -7 -7 -7 -7 -7 -7 -7 -7 -6 -6 -5 -5 -4 -3 -3 -2 -2 -1
1 1 1 0 0 -0 -0 -1 -2 -2 -3 -3 -3 -4 -4 -4 -5 -7 -8 -8 -8 -7 -7 -7 -7 -7 -7 -7 -7 -7 -7 -7 -7 -7 -6 -5 -5 -4 -4 -3 -3 -2 -1
1 0 -0 -0 -1 -1 -2 -2 -3 -3 -4 -4 -4 -4 -5 -6 -7 -8 -8 -8 -8 -8 -8 -8 -8 -8 -7 -7 -7 -7 -8 -8 -7 -7 -6 -6 -5 -5 -4 -4 -3 -2 -2
-0 -0 -1 -1 -1 -2 -3 -3 -4 -4 -4 -4 -4 -5 -6 -8 -8 -9 -9 -8 -8 -8 -8 -8 -8 -8 -8 -8 -8 -9 -9 -8 -7 -8 -8 -7 -6 -6 -6 -5 -4 -4 -3
-0 -1 -1 -2 -2 -3 -4 -4 -4 -5 -5 -5 -6 -7 -8 -9 -9 -9 -9 -9 -8 -8 -8 -8 -8 -8 -8 -9 -9 -9 -9 -9 -9 -9 -8 -7 -7 -7 -6 -6 -5 -4 -3
-1 -1 -2 -2 -3 -4 -4 -5 -5 -6 -6 -7 -8 -9 -9 -9 -10 -10 -9 -9 -9 -9 -9 -9 -9 -9 -9 -10 -10 -10 -10 -10 -9 -9 -8 -8 -8 -7 -7 -7 -6 -5 -4
-2 -2 -3 -3 -4 -4 -5 -5 -6 -7 -8 -9 -10 -10 -10 -10 -10 -10 -9 -9 -9 -9 -9 -9 -10 -10 -10 -11 -11 -10 -10 -10 -10 -9 -9 -9 -8 -7 -7 -7 -7 -6 -6
-3 -3 -4 -4 -4 -5 -5 -6 -7 -8 -10 -10 -10 -10 -10 -10 -10 -9 -9 -9 -9 -9 -9 -10 -11 -11 -11 -11 -11 -11 -11 -11 -10 -10 -10 -9 -8 -8 -8 -7 -7 -7 -6
-4 -4 -4 -5 -5 -6 -7 -7 -8 -9 -10 -10 -10 -10 -10 -10 -10 -10 -10 -10 -10 -10 -10 -11 -11 -11 -12 -12 -12 -11 -11 -11 -10 -10 -10 -9 -8 -8 -8 -8 -8 -7 -7
-4 -5 -5 -6 -6 -7 -8 -9 -9 -9 -10 -10 -10 -11 -11 -11 -10 -10 -10 -10 -10 -11 -12 -12 -12 -12 -12 -12 -12 -12 -11 -11 -11 -10 -10 -9 -8 -8 -8 -8 -8 -7 -7
-5 -5 -6 -7 -7 -8 -9 -10 -10 -11 -11 -11 -10 -11 -11 -11 -11 -11 -11 -11 -12 -12 -12 -12 -12 -12 -12 -12 -12 -12 -11 -11 -11 -10 -9 -9 -8 -8 -8 -8 -7 -7 -7
-6 -6 -7 -8 -8 -9 -9 -10 -11 -11 -11 -11 -11 -11 -11 -12 -11 -11 -11 -12 -12 -12 -12 -12 -13 -13 -12 -12 -12 -12 -11 -11 -10 -10 -9 -8 -8 -8 -8 -7 -7 -7 -6
-7 -7 -8 -8 -9 -9 -10 -11 -11 -11 -11 -11 -11 -12 -12 -12 -11 -12 -12 -12 -12 -13 -13 -13 -13 -13 -12 -12 -12 -12 -11 -10 -10 -9 -9 -8 -8 -8 -8 -7 -7 -6 -6
-7 -8 -8 -9 -9 -10 -11 -11 -11 -11 -12 -12 -12 -12 -12 -12 -12 -12 -13 -13 -13 -13 -13 -13 -13 -12 -12 -12 -12 -11 -11 -10 -9 -9 -8 -8 -8 -7 -7 -7 -6 -6 -6
-8 -8 -9 -9 -10 -11 -11 -11 -11 -12 -12 -12 -12 -13 -12 -13 -13 -13 -13 -13 -13 -13 -13 -13 -13 -12 -11 -11 -11 -11 -10 -9 -8 -8 -8 -7 -7 -7 -7 -6 -6 -6 -6
-8 -9 -10 -10 -11 -11 -11 -11 -11 -12 -12 -12 -13 -13 -13 -13 -13 -13 -13 -13 -13 -13 -13 -12 -12 -11 -11 -10 -10 -9 -9 -8 -8 -8 -7 -7 -6 -6 -6 -6 -6 -6 -6
-9 -10 -10 -11 -11 -11 -11 -11 -11 -12 -12 -13 -13 -13 -13 -13 -13 -13 -13 -13 -13 -13 -12 -12 -11 -11 -10 -9 -9 -8 -8 -8 -8 -7 -6 -6 -6 -6 -6 -6 -5 -5 -5
-10 -10 -10 -11 -11 -11 -11 -11 -12 -12 -13 -13 -14 -14 -14 -14 -14 -13 -13 -13 -13 -13 -12 -11 -11 -10 -9 -9 -8 -8 -8 -8 -7 -6 -6 -6 -6 -5 -5 -5 -5 -5 -5
-10 -10 -10 -11 -11 -11 -11 -12 -12 -13 -13 -14 -14 -14 -14 -14 -14 -13 -13 -13 -13 -12 -12 -11 -10 -9 -9 -8 -8 -8 -8 -7 -6 -5 -5 -5 -5 -5 -5 -5 -5 -5 -5
Wind_Speed
8 8 8 7 7 7 6 7 7 7 8 8 9 9 10 10 11 11 11 11 12 12 10 11 11 11 9 9 9 9 9 9 15 18 16 14 15 16 17 16 17 17 16
7 7 7 6 6 7 7 7 7 8 8 8 9 9 10 11 11 11 12 12 13 12 11 10 11 12 12 11 10 11 11 10 11 18 20 17 16 15 17 17 17 17 15
6 6 6 6 7 7 7 8 8 8 8 9 9 10 11 12 12 10 10 12 12 11 11 11 13 13 14 12 13 13 11 12 9 14 19 17 15 13 15 17 16 15 16
5 6 6 6 7 7 7 8 8 8 9 10 11 11 11 13 12 11 14 14 12 11 10 11 13 14 15 16 15 11 12 14 12 14 17 17 16 12 12 14 15 12 14
5 5 5 6 6 7 7 8 8 8 10 10 11 11 11 12 12 17 16 16 14 14 13 12 13 20 24 20 19 17 17 16 16 17 18 17 16 14 13 13 17 16 14
4 5 5 6 7 7 8 8 8 9 10 11 12 13 14 14 23 27 23 16 15 15 17 17 17 17 22 29 31 30 28 22 20 20 19 20 21 19 17 17 17 18 18
4 5 6 6 7 7 9 9 9 10 11 12 12 13 14 17 26 27 28 20 14 15 16 17 18 19 24 17 24 30 27 32 31 24 23 23 23 22 22 22 20 21 21
5 6 6 7 7 8 8 9 9 9 11 11 12 13 14 17 26 28 29 17 14 15 15 16 17 17 19 23 22 22 21 22 25 22 20 22 22 22 22 23 24 23 22
5 6 7 7 7 8 9 9 9 10 12 11 12 12 14 17 25 27 28 14 14 15 15 16 19 17 28 34 26 25 25 22 27 31 33 31 34 33 28 20 19 19 19
6 7 7 7 7 8 9 8 8 10 11 13 13 11 12 15 23 27 28 14 15 16 15 15 22 25 32 35 25 23 23 23 24 26 25 25 22 23 27 19 17 17 16
6 7 7 7 8 8 7 7 10 11 12 12 14 12 11 15 21 26 28 16 16 17 17 16 16 30 35 36 31 20 25 28 23 21 19 18 16 14 14 15 16 15 15
6 7 8 8 8 9 9 9 9 10 12 13 13 14 9 10 18 22 28 27 26 19 17 16 18 32 35 35 26 27 34 29 17 17 17 16 16 15 15 16 16 12 8
7 8 8 9 8 8 9 10 10 9 10 12 13 13 12 9 13 25 27 29 30 20 17 26 29 32 31 23 27 32 27 17 17 17 17 17 15 15 15 14 11 6 5
7 8 8 8 8 8 7 7 9 10 11 13 14 15 15 13 11 12 15 17 22 19 16 21 27 27 23 24 23 20 16 16 18 17 18 17 15 13 13 12 9 6 3
8 8 8 8 8 8 8 7 10 9 12 15 13 13 15 15 18 28 23 18 18 19 21 13 13 15 16 16 16 16 15 16 17 16 17 17 16 14 13 10 7 4 2
7 7 7 7 7 8 10 11 15 16 22 24 23 21 18 22 29 30 31 30 30 30 22 15 15 16 17 18 18 18 18 17 17 17 17 17 16 14 12 9 5 4 4
7 8 7 7 8 8 9 12 14 16 19 21 23 24 24 27 29 29 30 29 27 27 16 14 15 16 17 17 17 18 18 18 18 17 17 16 14 12 10 7 5 4 5
7 10 11 8 8 9 10 11 11 14 15 12 16 23 26 27 28 28 28 23 17 17 13 14 15 16 16 17 17 18 18 18 17 17 16 14 12 10 7 6 5 4 4
8 7 8 8 8 9 10 11 11 13 14 14 13 16 23 25 25 24 22 13 15 15 14 14 15 16 16 17 17 17 18 17 18 17 15 13 10 8 6 5 5 6 5
7 14 14 10 9 9 10 11 12 13 14 13 14 15 15 17 14 14 13 12 13 14 15 15 15 16 16 16 17 17 17 17 17 15 13 11 9 7 6 6 5 4 4
7 10 16 12 9 10 11 11 12 12 13 13 14 18 24 16 14 14 13 13 13 14 15 16 16 16 16 16 16 17 19 16 15 14 11 9 7 6 5 5 4 4 3
7 8 8 9 10 11 12 11 11 12 14 15 14 16 23 14 12 13 13 13 12 13 14 15 15 15 15 15 17 17 17 16 14 12 9 7 6 5 5 4 4 4 4
8 10 10 11 11 16 14 10 11 12 13 14 14 14 14 12 12 13 14 13 13 13 13 14 15 15 15 16 16 15 15 15 12 9 8 6 5 5 4 4 4 4 4
8 9 11 11 11 11 10 11 11 12 13 13 13 13 13 12 12 14 13 12 13 13 13 14 15 19 23 20 17 15 14 12 8 6 6 5 5 5 4 4 4 4 4
8 9 10 10 10 10 11 11 11 12 13 13 13 13 13 13 13 13 12 12 13 14 15 16 15 17 22 26 22 18 18 15 11 6 4 4 5 5 4 4 4 4 4
8 9 10 9 9 9 10 11 12 12 12 13 13 13 13 14 13 12 12 12 13 14 15 15 18 22 25 20 20 21 17 14 12 10 5 4 5 5 5 5 5 5 5
Wind_Direction
60 58 50 37 26 19 13 0 349 342 339 339 337 335 334 333 332 328 324 327 326 321 322 326 323 320 317 313 305 300 294 290 294 298 301 306 307 305 303 300 296 292 288
62 58 46 29 18 11 360 350 344 341 336 335 332 331 331 332 326 321 321 325 319 318 320 321 318 317 307 302 299 295 291 285 289 300 302 302 299 299 299 298 298 295 290
63 54 37 19 8 359 348 343 343 340 336 337 336 334 332 330 324 317 316 317 313 312 313 314 315 311 307 304 300 296 293 299 294 294 295 296 295 296 298 297 292 290 290
59 45 27 8 355 346 338 338 339 337 337 337 334 330 328 326 320 322 323 318 315 312 308 308 310 309 308 309 308 303 309 307 298 293 293 294 293 292 290 295 296 290 290
51 34 10 350 342 340 337 336 334 334 337 328 329 329 328 327 327 328 325 322 320 317 315 310 308 311 312 313 313 314 312 306 305 302 298 296 295 295 292 291 290 290 283
42 16 352 344 341 339 334 333 332 331 330 331 331 330 329 330 326 328 327 320 318 318 317 315 312 310 312 317 314 311 310 308 306 301 298 294 293 292 290 287 286 288 288
24 358 345 338 334 330 332 334 333 331 330 330 327 324 320 319 325 326 325 324 316 313 310 311 312 314 316 307 308 311 309 304 300 296 293 291 290 288 287 285 281 280 280
3 343 333 328 324 324 328 330 328 326 326 321 318 315 314 317 324 325 324 324 312 306 306 306 307 308 311 314 313 311 306 303 299 298 292 289 288 286 283 283 284 282 278
342 326 319 319 322 327 327 324 322 322 320 314 313 312 313 316 322 324 326 317 312 308 307 309 312 311 312 318 318 313 310 308 307 304 301 299 297 297 296 294 287 282 280
316 308 308 314 319 318 312 310 312 313 310 312 311 310 308 310 316 325 325 318 316 315 314 312 314 316 317 320 320 316 313 311 310 310 308 304 300 297 299 296 295 292 288
302 306 312 315 315 307 304 306 307 309 311 312 311 311 305 308 318 323 323 325 320 319 319 318 316 318 321 323 323 317 311 313 313 311 308 305 303 302 303 303 300 295 290
308 311 312 311 311 315 308 304 302 307 313 314 313 312 304 304 317 320 323 323 323 320 318 316 316 321 325 324 323 317 318 320 314 309 307 307 308 308 308 306 302 299 302
316 313 309 306 299 296 296 303 310 311 313 313 313 313 315 313 317 321 321 322 323 323 315 317 321 324 325 323 319 320 322 317 313 312 311 309 307 304 307 307 301 295 310
311 307 303 300 297 291 293 297 306 310 309 310 313 315 317 317 316 317 318 320 322 321 317 320 325 322 322 322 322 320 317 313 315 312 311 308 307 308 311 311 306 303 312
300 297 297 297 294 300 299 295 304 293 300 310 312 314 316 317 317 321 324 323 324 324 329 325 322 323 325 324 322 319 318 317 317 316 314 312 313 315 316 316 308 317 3
299 298 298 300 301 305 307 308 307 310 313 313 313 314 315 314 317 322 324 324 329 332 333 325 324 323 323 324 322 321 320 320 319 318 315 313 316 319 320 324 335 8 42
293 302 302 300 300 303 304 309 314 317 316 314 315 317 318 319 321 323 323 327 331 332 328 322 322 322 321 320 319 318 318 318 317 317 315 316 319 322 324 336 1 29 46
297 307 310 299 298 300 303 308 311 314 316 315 315 317 320 322 322 322 325 332 328 326 321 320 320 320 319 318 317 317 317 318 319 319 317 320 326 329 337 356 17 33 39
302 298 294 291 294 300 306 308 308 308 310 311 313 317 320 321 319 320 328 327 320 320 320 320 319 318 317 316 315 315 316 317 318 320 320 328 335 341 354 8 18 30 32
294 303 310 306 304 308 308 308 308 309 309 311 313 316 318 317 318 322 323 317 317 318 319 319 318 316 315 314 315 316 318 318 320 321 326 336 344 353 3 10 13 17 25
289 298 308 309 304 304 305 305 305 307 310 310 310 311 315 318 318 316 317 317 317 318 318 318 317 315 314 314 316 317 318 318 319 322 331 341 348 353 358 6 11 17 18
289 295 297 298 301 303 304 305 309 309 308 308 309 311 314 315 312 312 314 315 315 315 316 315 314 312 312 314 316 317 316 316 319 325 334 340 345 351 354 359 1 2 4
291 294 297 298 300 304 308 305 306 307 307 308 308 310 311 310 310 312 312 314 315 316 316 315 313 311 312 314 315 314 313 312 316 326 333 337 346 351 350 351 353 353 356
285 288 295 300 302 302 303 304 306 306 306 307 308 308 308 308 308 309 311 312 315 315 314 314 312 310 312 318 319 317 314 318 325 338 344 353 357 352 351 355 355 354 352
288 292 297 298 299 300 301 301 302 303 304 305 305 306 307 308 309 309 311 313 313 314 314 314 313 315 317 319 320 321 329 347 2 5 6 13 8 360 355 357 359 5 13
294 296 298 297 295 294 295 297 298 298 300 302 304 305 307 308 308 309 311 314 317 318 317 316 314 317 319 321 322 330 347 3 9 17 22 9 3 2 2 5 9 15 19
Height
1484 1483 1481 1479 1476 1473 1469 1465 1461 1457 1453 1449 1444 1439 1435 1430 1425 1420 1414 1409 1403 1398 1393 1388 1383 1379 1373 1368 1364 1359 1354 1350 1341 1327 1321 1315 1310 1306 1303 1300 1297 1292 1288
1483 1481 1479 1476 1473 1469 1466 1461 1457 1454 1449 1445 1440 1435 1430 1425 1420 1415 1409 1403 1398 1392 1387 1381 1376 1371 1365 1360 1354 1348 1343 1339 1333 1322 1310 1304 1299 1296 1292 1288 1284 1281 1277
1481 1479 1476 1473 1469 1466 1462 1458 1453 1450 1445 1441 1436 1431 1425 1420 1415 1409 1404 1398 1392 1387 1381 1375 1368 1362 1355 1350 1344 1339 1334 1329 1324 1316 1304 1295 1289 1286 1282 1276 1273 1269 1265
1478 1475 1472 1469 1465 1462 1458 1454 1450 1446 1441 1436 1432 1427 1421 1415 1410 1404 1398 1391 1385 1380 1374 1368 1361 1355 1349 1342 1336 1331 1326 1319 1313 1306 1296 1287 1281 1276 1273 1267 1260 1256 1253
1474 1471 1468 1465 1462 1459 1455 1451 1446 1442 1437 1432 1427 1421 1416 1410 1404 1398 1392 1385 1379 1372 1366 1360 1355 1349 1344 1338 1332 1324 1318 1311 1304 1296 1288 1280 1272 1267 1263 1258 1251 1244 1239
1471 1468 1465 1462 1459 1455 1451 1446 1442 1437 1432 1427 1422 1416 1411 1405 1399 1393 1387 1380 1373 1366 1359 1352 1346 1341 1336 1330 1324 1318 1312 1305 1296 1288 1279 1272 1264 1259 1254 1248 1243 1236 1227
1467 1465 1462 1458 1455 1451 1447 1442 1437 1432 1427 1422 1417 1411 1405 1399 1393 1386 1380 1374 1367 1360 1353 1346 1340 1334 1329 1321 1314 1308 1301 1295 1290 1282 1272 1263 1256 1250 1245 1238 1232 1226 1218
1464 1462 1458 1455 1451 1447 1443 1438 1433 1428 1423 1417 1411 1405 1399 1392 1386 1379 1373 1367 1360 1353 1347 1341 1334 1327 1321 1315 1306 1298 1289 1282 1276 1269 1262 1254 1247 1240 1235 1228 1220 1213 1206
1461 1458 1455 1451 1447 1443 1438 1434 1429 1423 1417 1411 1405 1399 1392 1386 1380 1374 1368 1360 1353 1347 1341 1335 1329 1322 1314 1308 1300 1289 1279 1269 1263 1257 1251 1244 1237 1230 1224 1217 1209 1202 1193
1458 1455 1451 1447 1443 1439 1435 1430 1424 1418 1412 1405 1399 1394 1387 1380 1374 1369 1364 1356 1349 1341 1334 1328 1322 1315 1308 1301 1293 1283 1271 1261 1253 1244 1237 1230 1224 1218 1212 1207 1199 1192 1184
1454 1451 1448 1444 1440 1435 1430 1425 1419 1413 1406 1400 1393 1387 1381 1375 1369 1364 1359 1353 1345 1337 1329 1321 1314 1308 1301 1293 1285 1276 1266 1257 1247 1238 1228 1220 1214 1208 1201 1194 1189 1183 1176
1451 1448 1444 1440 1436 1431 1425 1420 1414 1408 1400 1393 1386 1379 1374 1370 1365 1358 1353 1348 1341 1333 1324 1316 1308 1302 1294 1285 1276 1268 1260 1251 1241 1231 1222 1213 1206 1198 1190 1183 1177 1172 1167
1446 1443 1440 1435 1431 1426 1421 1414 1408 1402 1395 1388 1381 1374 1368 1363 1358 1353 1348 1342 1335 1328 1320 1312 1304 1296 1287 1277 1269 1261 1253 1243 1235 1226 1216 1207 1199 1191 1183 1175 1168 1164 1159
1442 1438 1434 1430 1425 1420 1415 1410 1403 1397 1390 1384 1378 1372 1365 1359 1353 1347 1342 1335 1329 1322 1314 1306 1298 1289 1281 1273 1263 1254 1246 1239 1231 1222 1211 1201 1193 1185 1177 1170 1163 1159 1156
1437 1433 1429 1424 1419 1414 1409 1404 1398 1392 1388 1382 1376 1369 1362 1355 1350 1345 1339 1331 1324 1317 1309 1299 1291 1283 1274 1266 1257 1249 1241 1233 1224 1216 1206 1196 1188 1181 1173 1167 1161 1157 1154
1431 1427 1423 1418 1413 1408 1402 1396 1391 1388 1383 1377 1372 1367 1360 1354 1347 1341 1335 1328 1320 1313 1305 1296 1288 1280 1272 1264 1254 1244 1236 1228 1220 1211 1202 1194 1186 1179 1171 1166 1161 1158 1155
1427 1422 1417 1412 1407 1402 1396 1389 1382 1377 1375 1370 1365 1360 1355 1348 1342 1336 1329 1323 1316 1309 1301 1293 1286 1278 1270 1261 1252 1243 1233 1224 1216 1208 1199 1192 1185 1178 1172 1167 1164 1161 1159
1422 1417 1412 1407 1402 1396 1391 1385 1379 1373 1367 1361 1358 1354 1349 1343 1337 1331 1325 1318 1310 1304 1298 1290 1283 1275 1267 1258 1249 1240 1230 1221 1213 1205 1197 1190 1184 1178 1173 1170 1167 1166 1164
1416 1411 1406 1401 1396 1391 1386 1381 1375 1370 1365 1358 1352 1347 1343 1337 1332 1327 1321 1314 1307 1300 1293 1287 1280 1272 1263 1255 1246 1237 1228 1219 1211 1203 1196 1191 1185 1180 1177 1174 1172 1170 1169
1410 1406 1401 1395 1390 1386 1381 1376 1371 1366 1361 1355 1349 1343 1337 1332 1326 1321 1316 1310 1303 1297 1290 1283 1276 1268 1260 1251 1242 1233 1225 1217 1209 1203 1197 1192 1188 1184 1181 1178 1176 1175 1173
1404 1399 1395 1390 1385 1380 1376 1371 1367 1362 1357 1351 1345 1340 1335 1330 1323 1317 1312 1306 1300 1293 1287 1280 1272 1264 1256 1248 1239 1231 1223 1215 1209 1204 1199 1195 1191 1188 1185 1183 1180 1178 1177
1398 1393 1389 1384 1380 1375 1371 1367 1362 1357 1351 1345 1339 1334 1330 1325 1319 1313 1308 1302 1296 1290 1284 1277 1269 1261 1253 1245 1237 1228 1221 1215 1210 1206 1202 1198 1194 1191 1189 1186 1184 1182 1180
1392 1388 1383 1379 1374 1370 1365 1360 1356 1350 1345 1339 1334 1329 1325 1320 1315 1309 1303 1298 1292 1286 1280 1273 1265 1257 1250 1242 1235 1228 1221 1216 1212 1208 1204 1201 1197 1194 1192 1189 1187 1185 1183
1386 1382 1377 1373 1368 1363 1359 1354 1349 1344 1339 1334 1330 1325 1320 1315 1310 1305 1299 1294 1288 1282 1276 1269 1262 1255 1247 1239 1233 1227 1222 1218 1214 1211 1207 1204 1200 1197 1194 1192 1190 1188 1187
1380 1376 1371 1366 1362 1357 1353 1348 1343 1339 1334 1330 1325 1321 1316 1311 1306 1300 1295 1290 1284 1278 1272 1266 1259 1252 1244 1238 1232 1227 1223 1220 1216 1213 1210 1207 1204 1201 1199 1196 1194 1192 1191
1374 1369 1365 1360 1355 1351 1346 1342 1337 1333 1329 1325 1320 1316 1311 1306 1301 1296 1291 1286 1281 1275 1269 1263 1257 1250 1243 1237 1233 1229 1225 1222 1219 1216 1213 1211 1208 1206 1204 1202 1200 1198 1196